Regional Weather Roundup
Issued by NWS

Home | Current Version | Previous Version | Text Only | Print | Product List | Glossary Off
Versions: 1 2 3 4 5 6 7 8 9 10 11 12 13 14 15 16 17 18 19 20 21 22 23 24 25 26 27 28 29 30 31 32 33 34 35 36 37 38 39 40 41 42 43 44 45 46 47 48 49 50

000
ASUS43 KMPX 251410
RWRMN
WEATHER ROUNDUP FOR MINNESOTA
NATIONAL WEATHER SERVICE TWIN CITIES/CHANHASSEN MN
900 AM CDT MON MAY 25 2015


NOTE: "FAIR" INDICATES FEW OR NO CLOUDS BELOW 12,000 FEET WITH NO
SIGNIFICANT WEATHER AND/OR OBSTRUCTIONS TO VISIBILITY. N/A MEANS
CURRENT SKY AND/OR WEATHER CONDITIONS ARE NOT AVAILABLE.

MNZ060>063-068>070-251500-
   Twin Cities Metro

CITY           SKY/WX    TMP DP  RH WIND       PRES   REMARKS
TWIN CITIES    CLOUDY    60  60 100 SW9       29.67R FOG
ST PAUL        CLOUDY    60  60 100 SE6       29.67S FOG
CRYSTAL        FOG       59  59 100 S5        29.65S VSB 3/4
BLAINE         CLOUDY    61  61 100 SE5       29.66S
LAKEVILLE      CLOUDY    61  59  94 SW7       29.69R
EDEN PRAIRIE   CLOUDY    61  59  93 SW13      29.67R
SOUTH ST PAUL  CLOUDY    61  60  97 CALM      29.67S FOG
LAKE ELMO      CLOUDY    59  59 100 S3        29.68R FOG
$$
MNZ001>005-007-008-013>017-022>024-027-028-251500-
   Northwest Minnesota

CITY           SKY/WX    TMP DP  RH WIND       PRES   REMARKS
BEMIDJI        LGT RAIN  56  55  95 N6        29.79F
HALLOCK        CLOUDY    61  52  72 N5        29.78S
ROSEAU         CLOUDY    61  52  72 CALM      29.79S
WARROAD        CLOUDY    61  54  77 NE3       29.79F
THIEF RVR FALL CLOUDY    61  52  72 W6        29.79S
CROOKSTON      CLOUDY    61  54  77 W7        29.79S
FOSSTON        DRIZZLE   57  55  94 CALM      29.80S
DETROIT LAKES  DRIZZLE   55  54  94 NE12      29.77S
MOORHEAD       LGT RAIN  57  55  94 N14       29.78S
PARK RAPIDS    LGT RAIN  57  54  89 NE15G30   29.74S FOG
MAHNOMEN       RAIN      57  55  94 N10       29.78S
$$
MNZ006-009>011-018-025>026-251500-
   North Central Minnesota

CITY           SKY/WX    TMP DP  RH WIND       PRES   REMARKS
BAUDETTE       CLOUDY    58  53  84 NW3       29.77F
FLAG ISLAND    CLOUDY    63  45  51 NE7       29.79R
INTL FALLS     CLOUDY    59  53  80 CALM      29.79S
WASKISH        CLOUDY    59  55  88 CALM      29.78F
BIG FORK       RAIN      57  55  94 CALM      29.80S
LONGVILLE      RAIN      57  55  94 NE7       29.73F
GRAND RAPIDS   CLOUDY    57  54  88 N7        29.75F
CRANE LAKE     CLOUDY    57  54  88 CALM      29.81F
ORR            CLOUDY    57  54  88 CALM      29.77F
COOK           DRIZZLE   57  55  94 CALM      29.79F
WALKER         LGT RAIN  56  54  92 NE8       29.76S
$$
MNZ012-019>021-037-251500-
   Northeast Minnesota

CITY           SKY/WX    TMP DP  RH WIND       PRES   REMARKS
DULUTH         LGT RAIN  59  56  89 E20G30    29.70F FOG
ELY            LGT RAIN  57  55  94 NE5       29.79F
HIBBING        LGT RAIN  58  54  86 NE9       29.76S FOG
EVELETH        LGT RAIN  57  55  94 NE9       29.76F
DULUTH HARBOR  DRIZZLE   46  45  93 E18       29.72F
TWO HARBORS    LGT RAIN  61  55  82 NE16G22   29.71F
GRAND MARAIS     N/A     48  47  96 NE8       29.79F
G MARAIS ARPRT LGT RAIN  55  52  88 NE10      29.82F
$$
MNZ029>031-032-039>041-046>048-054>057-064-251500-
   West Central Minnesota

CITY           SKY/WX    TMP DP  RH WIND       PRES   REMARKS
FERGUS FALLS   RAIN      55  55 100 NE15G25   29.72S
WHEATON        RAIN      55  54  94 N8        29.72S
MORRIS         LGT RAIN  59  57  94 N3        29.68S
ALEXANDRIA     LGT RAIN  57  57 100 NE7       29.69S FOG
ELBOW LAKE     RAIN      56  56  99 N6        29.69S
WADENA         LGT RAIN  55  55 100 NE10G18   29.69F
GLENWOOD       CLOUDY    57  55  94 N5        29.68S
APPLETON       DRIZZLE   61  57  88 NW3       29.69S
BENSON         RAIN      59  55  88 CALM      29.69R
ORTONVILLE     RAIN      57  55  94 N3        29.71R
MADISON        CLOUDY    59  57  94 W6        29.70F
WILLMAR        DRIZZLE   59  59 100 W5        29.69S
$$
MNZ033>034-036-042>043-049>051-058-059-251500-
   Central Minnesota

CITY           SKY/WX    TMP DP  RH WIND       PRES   REMARKS
ST CLOUD       CLOUDY    57  57 100 E5        29.66S FOG
SAUK CENTRE    RAIN      56  56  98 CALM      29.67F
PAYNESVILLE    LGT RAIN  55  55 100 CALM      29.67S
AITKIN         HVY RAIN  57  52  82 N6        29.68F
PINE RIVER     RAIN      55  55 100 NE10G17   29.75S
BRAINERD       LGT RAIN  57  56  96 NE8       29.69F VSB 1
STAPLES        HVY RAIN  55  55 100 NE6       29.69F
LONG PRAIRIE   LGT RAIN  55  55 100 N3        29.68S
LITTLE FALLS   DRIZZLE   55  54  94 CALM      29.67S
LITCHFIELD     CLOUDY    59  59 100 SW3       29.68R
BUFFALO        CLOUDY    59  57  94 S3        29.67R FOG
MAPLE LAKE     CLOUDY    60  59  97 SE3       29.67S FOG
$$
MNZ037-044-045-052-053-251500-
   East Central Minnesota

CITY           SKY/WX    TMP DP  RH WIND       PRES   REMARKS
PRINCETON      CLOUDY    59  57  94 E5        29.67S FOG
MORA           CLOUDY    54  52  94 E3        29.69S FOG
CAMBRIDGE      CLOUDY    59  52  77 E5        29.65S HAZE
RUSH CITY      CLOUDY    57  56  97 CALM      29.67S
MOOSE LAKE     RAIN      54  54 100 NE7       29.68F
HINCKLEY       LGT RAIN  59  59 100 E5        29.68S
CLOQUET        DRIZZLE   55  54  94 E12G20    29.72R
MCGREGOR       CLOUDY    57  55  94 NE5       29.70F
$$
MNZ071>073-080-081-089-090-097-098-251500-
   Southwest Minnesota

CITY           SKY/WX    TMP DP  RH WIND       PRES   REMARKS
MONTEVIDEO     CLOUDY    59  59 100 N7        29.70F FOG
GRANITE FALLS  CLOUDY    58  58  99 SW8       29.71F
CANBY          CLOUDY    58  57  96 W7        29.73R
MARSHALL       CLOUDY    59  54  82 W9        29.72S
REDWOOD FALLS  CLOUDY    59  58  96 W12       29.70S
OLIVIA         CLOUDY    57  55  94 W8        29.69S
PIPESTONE      CLOUDY    57  57 100 W8        29.74F
WINDOM         CLOUDY    61  59  94 SW9       29.73F
WORTHINGTON    CLOUDY    61  55  82 W8        29.75F
JACKSON        CLOUDY    59  59 100 W8        29.74F
TRACY          CLOUDY    61  58  91 W8        29.73S
SLAYTON        CLOUDY    60  58  94 W10       29.74F
$$
MNZ065>067-074>077-082>085-091>093-251500-
   South Central Minnesota

CITY           SKY/WX    TMP DP  RH WIND       PRES   REMARKS
MANKATO        CLOUDY    61  57  88 SW15      29.72R
NEW ULM        CLOUDY    59  59 100 W10       29.71S
ST JAMES       CLOUDY    63  61  94 SW15      29.74R
FAIRMONT       CLOUDY    63  54  72 W13       29.74S
GLENCOE        CLOUDY    60  60 100 SW8       29.68R
FARIBAULT      CLOUDY    61  61 100 SW7       29.71R
OWATONNA       CLOUDY    63  59  88 SW17      29.73R
WASECA         CLOUDY    59  55  88 SW13      29.74R
ALBERT LEA     CLOUDY    63  61  94 SW10      29.74R
$$
MNZ078>079-086>088-094>096-251500-
   Southeast Minnesota

CITY           SKY/WX    TMP DP  RH WIND       PRES   REMARKS
ROCHESTER      CLOUDY    62  60  93 W20       29.74R
RED WING       CLOUDY    63  61  94 S3        29.68R
STANTON        CLOUDY    64  61  91 SW14      29.69R
DODGE CENTER   CLOUDY    63  61  94 SW15G21   29.73R
WINONA         CLOUDY    66  63  88 CALM      29.71R
AUSTIN         CLOUDY    63  61  94 SW9       29.75R FOG
PRESTON        CLOUDY    62  59  92 SW12      29.74S FOG
$$
ABBREVIATIONS USED IN REMARKS
   TC - TEMPERATURES IN CELSIUS
  WCI - WIND CHILL INDEX
   HX - HEAT INDEX
  VSB - VISIBILITY
$$



USA.gov is the U.S. government's official web portal to all federal, state and local government web resources and services.